PROGRESS-MS 10 (43702 NORAD) Tracking and Keplerian Element Data

This shows tracking and keplerian element data for the satellite.

Feedback or suggestion? Click here.




ElementValue
Catalog43702
NamePROGRESS-MS 10
Epoch Orbit17297
Epoch Day153.54200231
Epoch Year2019
RAAN73.98
Inclination51.644
Eccentricity0.0007568
Argument of Perigee5.853
Mean Anonmoly338.9083
Mean Motion15.51157944
Decay Rate-2.258E-05
L11 43702U 18091A 19153.54200231 -.00002258 00000-0 -30105-4 0 9993
L22 43702 51.6440 73.9800 0007568 5.8530 338.9083 15.51157944172974



Live tracking and technical data element details for PROGRESS-MS 10 (NORAD 43702). PROGRESS-MS 10 can be tracked NOW for your location showing map with azimuth and elevation plus other details from your city location.







IsCatalogInMostPopularTable: catalog: 43702, numindb: 416
Update: records affected: 1



GetName: 43702 PROGRESS-MS 10

Hit Count: updated at: Thu, 15 May 2025 18:30:27 GMT